Precipitable_Water
0.57 0.61 0.68 0.66 0.64 0.66 0.69 0.64 0.62 0.61 0.61 0.58 0.55 0.54 0.53 0.53 0.54 0.55 0.56 0.56 0.58 0.60 0.61 0.64 0.65 0.62 0.60 0.46 0.37 0.56 0.59 0.60 0.66 0.67 0.64 0.61 0.54 0.53 0.50 0.53 0.46 0.38 0.41 0.42 0.41 0.50 0.58
0.56 0.57 0.66 0.67 0.64 0.62 0.65 0.64 0.61 0.61 0.60 0.57 0.54 0.51 0.51 0.51 0.52 0.53 0.52 0.52 0.54 0.56 0.58 0.63 0.64 0.63 0.53 0.31 0.53 0.57 0.57 0.57 0.57 0.58 0.58 0.65 0.58 0.60 0.55 0.52 0.43 0.47 0.46 0.38 0.38 0.43 0.54
0.56 0.57 0.61 0.66 0.64 0.58 0.58 0.62 0.61 0.61 0.60 0.57 0.54 0.50 0.48 0.47 0.46 0.48 0.49 0.51 0.52 0.55 0.57 0.62 0.63 0.60 0.51 0.37 0.54 0.57 0.56 0.55 0.59 0.58 0.51 0.61 0.64 0.55 0.54 0.47 0.54 0.44 0.37 0.38 0.31 0.34 0.49
0.54 0.55 0.56 0.65 0.62 0.59 0.55 0.56 0.59 0.59 0.59 0.57 0.53 0.50 0.47 0.44 0.45 0.46 0.49 0.50 0.50 0.51 0.55 0.59 0.63 0.57 0.40 0.51 0.56 0.54 0.54 0.52 0.57 0.59 0.60 0.63 0.63 0.55 0.55 0.56 0.49 0.37 0.36 0.28 0.31 0.28 0.37
0.52 0.54 0.56 0.59 0.60 0.57 0.56 0.54 0.57 0.57 0.58 0.56 0.52 0.49 0.47 0.46 0.45 0.45 0.45 0.46 0.48 0.48 0.53 0.56 0.52 0.49 0.34 0.50 0.45 0.52 0.54 0.46 0.50 0.57 0.62 0.65 0.63 0.53 0.56 0.49 0.44 0.37 0.35 0.29 0.27 0.28 0.28
0.49 0.51 0.52 0.54 0.59 0.56 0.54 0.54 0.57 0.55 0.55 0.54 0.53 0.49 0.47 0.46 0.47 0.46 0.43 0.46 0.45 0.45 0.49 0.52 0.50 0.39 0.40 0.35 0.43 0.48 0.55 0.52 0.49 0.51 0.52 0.53 0.49 0.41 0.38 0.34 0.25 0.28 0.31 0.29 0.27 0.32 0.28
0.49 0.50 0.51 0.51 0.54 0.58 0.53 0.52 0.57 0.56 0.52 0.54 0.52 0.50 0.48 0.47 0.48 0.47 0.43 0.42 0.35 0.37 0.38 0.27 0.29 0.31 0.34 0.42 0.47 0.45 0.49 0.46 0.49 0.44 0.34 0.44 0.33 0.25 0.29 0.34 0.34 0.34 0.31 0.35 0.33 0.34 0.28
0.48 0.48 0.49 0.49 0.52 0.54 0.57 0.54 0.52 0.55 0.52 0.51 0.51 0.51 0.49 0.47 0.48 0.48 0.47 0.34 0.37 0.43 0.28 0.35 0.32 0.33 0.39 0.42 0.33 0.38 0.46 0.37 0.38 0.32 0.36 0.31 0.25 0.32 0.35 0.35 0.33 0.30 0.32 0.30 0.34 0.33 0.25
0.48 0.48 0.48 0.48 0.48 0.51 0.53 0.57 0.56 0.52 0.51 0.49 0.48 0.48 0.49 0.47 0.46 0.47 0.39 0.38 0.52 0.56 0.32 0.32 0.30 0.29 0.32 0.36 0.30 0.30 0.37 0.38 0.36 0.30 0.34 0.31 0.31 0.35 0.34 0.31 0.28 0.30 0.24 0.25 0.27 0.27 0.28
0.55 0.50 0.48 0.47 0.49 0.49 0.50 0.52 0.56 0.54 0.50 0.46 0.42 0.45 0.44 0.45 0.45 0.41 0.38 0.48 0.53 0.56 0.25 0.26 0.24 0.31 0.31 0.33 0.28 0.37 0.37 0.34 0.34 0.28 0.32 0.35 0.39 0.35 0.31 0.26 0.27 0.24 0.28 0.26 0.26 0.26 0.23
0.67 0.62 0.54 0.51 0.47 0.48 0.49 0.50 0.52 0.55 0.54 0.49 0.47 0.42 0.42 0.44 0.40 0.36 0.42 0.51 0.52 0.46 0.14 0.22 0.24 0.32 0.31 0.26 0.27 0.29 0.39 0.31 0.24 0.28 0.31 0.25 0.28 0.32 0.31 0.26 0.30 0.23 0.29 0.26 0.22 0.21 0.23
0.81 0.70 0.62 0.54 0.52 0.48 0.50 0.50 0.51 0.53 0.54 0.54 0.53 0.49 0.44 0.42 0.43 0.44 0.51 0.54 0.45 0.25 0.14 0.19 0.23 0.22 0.23 0.27 0.26 0.28 0.30 0.37 0.31 0.25 0.32 0.30 0.36 0.32 0.32 0.37 0.38 0.34 0.30 0.29 0.30 0.26 0.20
0.90 0.81 0.67 0.59 0.54 0.53 0.51 0.53 0.53 0.53 0.51 0.53 0.53 0.54 0.50 0.47 0.33 0.47 0.50 0.40 0.22 0.13 0.20 0.19 0.19 0.21 0.21 0.23 0.22 0.23 0.22 0.27 0.19 0.15 0.16 0.22 0.27 0.30 0.31 0.27 0.36 0.34 0.29 0.21 0.17 0.17 0.15
0.94 0.89 0.84 0.75 0.64 0.59 0.55 0.54 0.56 0.52 0.52 0.49 0.53 0.51 0.53 0.51 0.57 0.50 0.43 0.25 0.14 0.16 0.15 0.22 0.22 0.22 0.21 0.23 0.22 0.21 0.21 0.21 0.24 0.19 0.17 0.16 0.14 0.23 0.26 0.27 0.24 0.29 0.32 0.22 0.16 0.14 0.15
1.08 0.99 0.98 0.86 0.80 0.72 0.67 0.64 0.62 0.56 0.54 0.48 0.51 0.53 0.52 0.56 0.58 0.53 0.33 0.17 0.16 0.19 0.18 0.19 0.21 0.21 0.20 0.23 0.22 0.22 0.19 0.20 0.22 0.22 0.15 0.18 0.13 0.23 0.26 0.26 0.30 0.23 0.23 0.30 0.26 0.29 0.22
1.24 1.14 1.06 0.94 0.99 0.92 0.86 0.73 0.80 0.59 0.58 0.50 0.44 0.45 0.49 0.59 0.61 0.49 0.28 0.19 0.18 0.23 0.23 0.24 0.18 0.22 0.17 0.18 0.19 0.18 0.18 0.24 0.23 0.25 0.25 0.22 0.15 0.21 0.22 0.28 0.33 0.27 0.29 0.19 0.24 0.18 0.17
1.16 1.09 1.12 1.09 0.99 0.93 0.89 0.82 0.68 0.60 0.59 0.52 0.48 0.33 0.55 0.58 0.52 0.38 0.23 0.25 0.23 0.28 0.28 0.22 0.22 0.21 0.20 0.21 0.21 0.19 0.19 0.23 0.26 0.25 0.25 0.23 0.20 0.17 0.20 0.21 0.19 0.23 0.23 0.23 0.24 0.23 0.19
1.02 1.00 1.13 1.03 0.97 0.92 0.86 0.77 0.75 0.72 0.61 0.52 0.40 0.31 0.56 0.59 0.30 0.31 0.25 0.27 0.28 0.27 0.31 0.28 0.27 0.25 0.24 0.25 0.21 0.19 0.20 0.21 0.27 0.26 0.21 0.24 0.17 0.16 0.16 0.23 0.25 0.24 0.22 0.19 0.15 0.16 0.20
1.09 1.17 1.10 1.04 0.99 0.95 0.88 0.79 0.72 0.75 0.64 0.48 0.38 0.40 0.54 0.51 0.24 0.26 0.30 0.26 0.28 0.28 0.30 0.31 0.30 0.30 0.27 0.24 0.20 0.21 0.22 0.27 0.26 0.26 0.24 0.24 0.17 0.13 0.16 0.19 0.22 0.19 0.21 0.23 0.21 0.22 0.20
1.18 1.15 1.03 1.00 0.96 0.90 0.86 0.82 0.81 0.74 0.65 0.55 0.42 0.34 0.39 0.39 0.39 0.29 0.26 0.26 0.28 0.32 0.30 0.32 0.29 0.28 0.26 0.23 0.26 0.23 0.23 0.27 0.27 0.27 0.30 0.28 0.20 0.17 0.15 0.15 0.20 0.19 0.20 0.22 0.17 0.18 0.18
1.10 1.05 1.07 0.99 0.95 0.91 0.93 0.91 0.83 0.75 0.69 0.57 0.43 0.34 0.35 0.26 0.32 0.32 0.31 0.29 0.27 0.26 0.32 0.31 0.27 0.26 0.27 0.25 0.24 0.24 0.27 0.26 0.25 0.28 0.30 0.29 0.21 0.22 0.23 0.23 0.24 0.23 0.22 0.21 0.17 0.17 0.18
1.15 1.11 1.05 0.98 0.95 0.95 0.96 0.95 0.86 0.78 0.72 0.51 0.41 0.35 0.37 0.30 0.32 0.30 0.33 0.29 0.31 0.32 0.30 0.26 0.28 0.29 0.29 0.27 0.27 0.24 0.23 0.21 0.20 0.27 0.29 0.34 0.24 0.26 0.24 0.27 0.25 0.23 0.23 0.20 0.21 0.23 0.23
1.13 1.05 1.02 1.03 1.03 0.98 0.96 0.96 0.86 0.81 0.72 0.53 0.53 0.49 0.40 0.35 0.35 0.32 0.32 0.34 0.35 0.36 0.33 0.33 0.31 0.29 0.26 0.27 0.29 0.29 0.29 0.27 0.25 0.23 0.25 0.29 0.28 0.24 0.21 0.26 0.23 0.20 0.22 0.23 0.23 0.24 0.24
1.05 1.06 1.05 1.02 0.98 0.95 0.90 0.88 0.85 0.80 0.74 0.65 0.60 0.53 0.41 0.35 0.36 0.35 0.37 0.36 0.33 0.32 0.30 0.30 0.30 0.27 0.31 0.37 0.34 0.33 0.34 0.34 0.35 0.35 0.34 0.29 0.27 0.25 0.21 0.23 0.17 0.23 0.27 0.27 0.24 0.26 0.28
1.04 1.04 1.01 1.01 0.97 0.93 0.90 0.88 0.87 0.83 0.77 0.68 0.65 0.58 0.49 0.42 0.41 0.39 0.38 0.38 0.38 0.38 0.39 0.39 0.40 0.43 0.45 0.40 0.36 0.35 0.34 0.34 0.34 0.35 0.35 0.36 0.31 0.26 0.22 0.21 0.22 0.25 0.27 0.26 0.25 0.24 0.29
1.04 1.03 1.04 1.02 0.98 0.93 0.91 0.90 0.89 0.87 0.86 0.84 0.82 0.78 0.63 0.52 0.50 0.50 0.48 0.49 0.46 0.43 0.45 0.48 0.50 0.58 0.55 0.47 0.41 0.32 0.28 0.32 0.31 0.32 0.38 0.37 0.36 0.28 0.23 0.17 0.15 0.22 0.27 0.30 0.29 0.18 0.34
1.07 1.06 1.01 0.98 0.97 0.94 0.92 0.91 0.91 0.90 0.90 0.87 0.85 0.89 0.75 0.59 0.61 0.61 0.53 0.53 0.55 0.51 0.48 0.51 0.52 0.51 0.57 0.44 0.37 0.34 0.32 0.39 0.31 0.30 0.32 0.32 0.30 0.23 0.21 0.18 0.20 0.26 0.28 0.30 0.19 0.23 0.34
1.05 1.02 1.00 1.00 0.98 0.97 0.96 0.96 0.95 0.96 0.97 0.93 0.88 0.95 0.80 0.66 0.67 0.70 0.70 0.62 0.61 0.59 0.49 0.55 0.53 0.54 0.50 0.38 0.35 0.34 0.31 0.34 0.32 0.32 0.28 0.24 0.23 0.21 0.22 0.19 0.17 0.32 0.32 0.27 0.32 0.35 0.36
1.03 1.04 1.02 1.01 1.00 1.00 0.98 0.98 0.96 0.95 0.95 0.96 0.79 0.90 0.89 0.71 0.67 0.78 0.77 0.79 0.74 0.72 0.61 0.59 0.52 0.46 0.46 0.37 0.35 0.32 0.27 0.30 0.27 0.20 0.30 0.21 0.24 0.21 0.23 0.23 0.33 0.38 0.40 0.43 0.42 0.40 0.40
Wind_Speed
8 8 9 9 9 9 10 10 10 10 11 11 13 14 15 16 16 17 18 20 21 22 23 23 24 24 22 20 23 25 25 26 24 23 21 17 15 12 8 9 11 12 16 20 23 25 28
7 8 8 9 9 9 9 9 10 10 10 11 13 14 15 16 16 17 18 19 21 22 23 23 23 24 21 22 24 25 25 25 24 23 22 17 14 13 10 12 9 10 12 17 22 25 25
7 7 8 8 8 9 9 9 9 10 10 11 13 14 15 15 16 17 17 19 20 22 22 23 22 22 21 22 23 24 25 25 24 22 22 18 14 12 11 10 7 10 12 12 20 24 24
7 8 8 8 8 9 9 9 9 10 10 11 13 14 15 16 16 17 17 18 19 20 22 21 22 21 21 23 24 24 25 24 24 22 20 19 14 12 8 8 10 5 7 10 14 23 26
8 8 9 9 9 9 10 10 10 10 10 11 13 14 15 16 17 18 18 18 17 18 20 20 21 20 21 24 26 25 24 24 24 21 20 18 16 12 12 13 5 2 6 7 6 16 23
9 10 10 10 10 10 10 11 11 11 11 12 13 14 15 17 18 19 19 18 16 16 18 17 20 19 21 24 26 25 24 23 21 21 19 17 16 14 13 12 11 8 7 5 1 5 17
11 11 11 11 11 11 11 12 12 12 12 13 14 15 16 17 18 19 19 16 16 14 15 17 19 19 21 25 23 23 26 23 21 20 20 16 19 18 16 12 10 8 6 4 3 3 11
13 13 13 13 13 13 13 13 13 13 14 14 15 16 16 17 17 18 17 16 16 16 15 14 17 18 20 21 21 24 28 23 21 21 21 20 19 19 16 13 11 8 11 8 1 3 6
15 15 15 15 15 15 15 15 15 14 15 15 16 17 17 18 16 16 15 16 17 17 13 13 16 17 19 20 20 22 25 23 21 21 21 19 18 18 16 16 15 10 10 8 6 6 7
16 16 16 16 16 16 16 16 17 16 16 16 17 17 18 18 14 16 15 17 17 16 12 12 15 15 18 19 17 20 22 20 20 21 20 17 19 19 18 17 16 11 11 9 7 6 2
19 18 18 18 18 18 18 18 18 18 18 18 18 18 18 16 17 15 17 18 17 14 11 14 15 17 17 17 19 18 19 19 20 19 18 18 19 19 16 16 15 12 13 8 6 6 5
20 20 19 19 19 20 20 20 20 20 20 20 19 18 18 17 16 16 17 18 15 13 11 13 15 17 18 15 16 18 17 17 17 17 15 16 16 16 17 17 12 14 13 8 4 3 2
20 21 20 20 20 21 21 21 22 22 21 21 20 19 18 18 17 17 17 16 14 10 13 13 16 18 17 16 17 18 18 17 18 19 17 18 14 15 17 18 13 18 15 10 10 7 3
21 22 23 22 22 22 22 23 22 23 22 22 21 20 19 18 18 18 16 14 13 13 14 14 16 18 14 17 15 18 16 16 16 18 17 17 17 16 18 16 14 14 14 10 9 9 8
24 22 23 24 25 23 24 24 24 24 23 23 22 20 19 19 18 17 15 14 14 15 15 17 19 15 14 14 16 17 18 14 15 17 17 17 15 13 14 16 14 14 13 12 10 8 7
25 24 24 25 24 25 26 25 25 24 23 22 21 20 19 18 17 16 15 16 15 16 17 17 16 15 17 18 16 19 17 14 14 16 17 15 15 14 14 13 11 11 13 12 11 10 9
23 24 25 26 25 25 24 24 22 22 22 22 21 19 18 17 16 16 16 16 17 17 17 16 17 18 18 17 17 18 16 14 15 15 17 15 12 15 15 11 12 12 11 10 9 8 8
25 26 26 25 25 24 24 23 22 23 23 21 20 19 17 17 17 17 17 17 17 17 18 18 17 18 18 19 18 19 15 16 16 17 17 14 15 15 16 13 10 11 13 12 10 11 11
25 24 23 23 24 24 25 24 23 22 20 20 19 19 18 19 18 17 17 19 19 18 18 17 18 18 18 18 19 18 18 15 17 17 17 14 14 17 14 12 12 12 13 12 13 13 12
25 24 23 22 23 25 23 22 21 20 19 19 19 18 17 18 19 19 19 19 18 17 19 20 20 19 19 19 18 19 19 17 16 17 17 17 15 15 15 18 19 20 19 18 16 12 14
25 23 22 22 21 20 19 19 20 20 19 18 18 18 17 17 17 18 18 20 20 21 20 19 19 20 20 20 21 21 20 19 19 17 16 16 17 18 20 21 22 23 24 20 17 21 16
24 22 20 20 20 21 21 20 19 20 19 18 18 18 17 19 18 20 20 20 21 22 20 20 21 23 22 22 23 25 24 23 21 17 18 17 18 19 21 21 22 23 22 20 19 21 21
24 22 20 20 20 20 20 19 20 20 20 20 20 21 20 20 20 21 20 20 20 21 21 20 20 22 24 25 24 24 24 25 25 24 24 20 19 19 22 19 23 22 15 14 15 16 17
23 22 21 20 18 18 18 18 19 20 21 21 21 22 22 22 21 22 21 22 22 22 22 23 25 24 23 24 26 26 27 27 26 26 21 21 21 21 24 23 18 18 21 21 21 22 22
24 22 21 20 18 18 17 16 16 16 17 17 18 19 21 22 20 21 20 21 23 24 24 23 22 21 23 23 23 23 19 18 19 19 19 18 19 20 19 20 26 28 22 16 18 21 29
23 22 21 20 19 18 17 15 15 15 15 16 16 17 18 19 19 19 21 22 22 21 21 20 19 20 22 22 20 19 18 20 18 18 18 19 22 20 21 22 22 19 21 22 24 25 19
23 22 21 20 18 17 16 15 15 15 16 17 18 18 18 18 19 19 19 19 18 20 21 22 21 20 19 20 21 21 23 23 21 21 20 19 20 22 26 27 27 27 26 26 21 22 27
23 21 20 19 18 17 16 16 17 18 17 17 17 18 18 19 21 21 21 22 23 23 23 22 23 21 20 20 20 21 22 21 22 24 24 23 23 24 24 25 28 23 25 22 28 32 31
23 22 21 20 18 18 18 17 18 18 19 19 19 19 21 22 24 25 27 28 27 26 26 24 24 23 22 22 23 24 26 27 30 31 29 30 29 31 29 31 33 31 30 32 34 36 38
Wind_Direction
12 14 13 14 15 15 15 14 14 15 16 15 13 10 9 9 8 6 4 4 4 4 3 1 1 2 6 5 4 1 1 1 359 358 355 348 346 340 328 299 294 271 253 243 231 219 224
2 2 3 5 6 7 8 9 9 10 10 9 7 5 4 4 4 3 3 3 5 4 6 4 4 4 7 9 4 3 3 3 3 3 1 356 352 341 322 311 292 285 279 245 232 217 222
345 348 352 354 356 358 359 359 0 0 3 3 2 2 0 0 1 359 359 0 2 4 4 7 7 10 7 8 6 6 5 5 6 5 4 1 356 354 340 330 322 296 277 257 232 221 218
328 334 337 340 344 347 348 349 349 352 353 355 357 358 358 357 356 356 353 353 357 1 5 7 9 12 11 10 7 6 6 6 6 7 9 9 9 1 2 346 339 310 276 263 230 215 215
311 318 323 326 329 334 339 340 338 340 343 346 349 351 353 353 352 350 349 347 348 356 3 6 10 10 11 8 8 6 7 6 7 12 11 15 13 9 4 11 340 315 357 277 209 210 208
301 308 313 315 316 320 325 331 331 329 333 336 339 343 346 347 348 348 347 346 349 351 359 4 5 8 9 7 6 6 7 6 8 8 14 16 17 11 12 9 7 351 346 337 360 208 215
292 298 304 307 309 309 312 318 324 323 323 326 331 334 337 340 343 346 350 353 352 352 353 3 3 4 3 4 10 11 10 6 9 15 14 16 20 20 13 6 358 350 334 18 339 258 227
284 291 296 300 302 303 305 308 313 317 318 318 323 325 330 333 336 344 347 354 355 348 344 352 355 357 358 5 6 10 10 15 14 15 16 21 21 14 9 2 358 356 14 3 339 323 243
281 286 291 295 297 299 300 301 303 309 313 315 316 319 323 326 328 336 346 348 346 344 339 348 352 354 359 360 2 5 10 11 15 15 15 19 15 12 12 19 9 29 15 359 323 309 249
280 283 288 291 292 294 297 297 299 300 306 310 312 314 318 321 319 327 333 337 339 340 337 346 350 353 354 355 358 3 7 10 11 11 13 16 14 11 9 20 14 18 5 348 343 335 335
274 284 285 287 290 291 293 294 295 297 299 303 307 309 313 318 313 318 323 328 331 334 341 339 346 347 347 351 350 360 1 5 4 4 9 13 13 13 8 13 12 5 358 342 333 322 313
276 276 281 285 288 290 291 291 293 295 295 298 301 303 308 310 310 314 317 322 324 329 317 334 337 339 343 344 347 348 353 357 360 359 360 359 12 12 11 360 356 355 356 352 359 341 351
278 275 280 285 287 290 290 290 291 294 293 295 296 297 300 304 305 308 312 315 321 317 321 328 331 335 337 339 343 347 347 354 359 359 358 355 5 9 8 5 10 6 8 18 17 13 322
278 276 277 282 287 290 289 290 288 292 290 293 292 292 294 297 301 303 306 309 307 312 318 320 321 324 326 339 338 338 340 348 355 352 347 355 352 360 0 8 1 2 13 23 360 3 339
273 279 280 280 286 289 288 289 291 288 290 290 291 286 289 292 297 298 300 301 299 313 312 320 317 319 324 326 328 333 334 342 347 350 351 349 344 349 354 354 1 356 13 2 354 345 353
277 275 280 283 284 286 288 289 291 286 287 289 287 284 285 289 292 292 295 291 299 306 308 310 313 317 320 327 326 333 329 337 338 342 343 342 338 347 347 346 349 353 350 359 354 351 349
274 275 279 281 284 287 288 290 286 288 287 286 285 285 284 284 287 288 287 288 296 301 303 306 309 309 309 313 318 321 320 325 329 331 331 333 337 332 337 338 340 340 345 342 341 334 335
269 274 279 279 283 286 287 288 287 288 287 283 284 280 283 278 284 284 286 289 295 296 299 300 302 306 307 312 311 312 312 323 325 325 323 329 325 328 322 337 337 333 332 333 332 324 321
269 273 278 278 281 284 289 286 283 289 287 282 278 280 279 276 280 280 284 288 289 292 294 298 300 301 310 305 309 307 313 315 316 318 319 321 319 324 328 336 335 322 322 316 311 314 303
264 270 272 278 282 285 287 283 278 283 283 281 281 281 280 275 277 283 288 287 288 292 293 296 299 302 300 300 295 301 307 309 309 309 313 311 307 303 305 305 315 311 309 308 301 299 300
261 262 268 277 282 284 285 283 279 278 283 279 277 279 279 277 275 279 285 288 288 292 291 293 295 293 296 298 302 296 295 300 302 300 302 301 299 301 303 305 307 303 301 297 289 287 288
256 258 265 274 278 280 278 280 279 278 278 277 281 281 279 278 280 281 282 285 286 292 292 291 290 298 299 292 293 299 301 301 297 298 296 293 297 304 304 306 302 299 299 292 290 290 288
249 255 263 270 277 278 281 275 275 276 275 274 278 279 279 280 280 282 285 285 292 296 288 291 296 297 295 296 297 295 294 292 288 291 289 288 292 298 298 307 315 308 298 304 299 291 294
245 253 259 268 271 276 276 276 276 278 276 274 276 278 280 280 278 281 286 288 290 290 287 289 294 292 294 298 296 291 288 285 285 284 280 284 289 294 296 303 296 295 300 297 295 291 298
246 251 257 262 267 273 273 276 276 277 281 279 280 280 278 281 284 285 285 287 290 288 285 286 289 294 299 298 297 297 294 293 286 288 283 280 285 292 293 290 295 298 304 303 303 298 303
240 247 253 259 268 267 266 269 272 276 281 284 288 287 284 285 285 286 290 290 290 291 292 289 290 293 296 294 294 289 290 297 292 293 299 293 289 285 294 292 292 303 299 298 298 299 305
239 248 251 255 259 260 261 265 269 273 278 285 288 288 288 288 288 290 289 293 294 293 291 293 295 297 294 294 289 288 286 285 288 289 290 293 290 283 284 288 290 297 294 294 290 290 298
242 242 247 251 254 256 258 263 269 274 278 281 286 287 287 289 291 291 291 292 292 289 289 294 297 293 291 291 291 292 291 291 291 292 294 290 288 288 288 287 291 298 300 297 297 297 298
238 243 244 247 251 258 259 264 269 273 277 279 284 287 289 287 292 293 291 288 286 286 286 285 286 289 291 291 292 295 293 293 294 290 292 289 285 288 283 284 289 298 298 297 298 296 295